,,,PA_Meas_PMT16A,,PR_Meas_QMR101_102,,RH_Meas_QMH101,,SR_Meas_QMS101,,TA_Meas_QMH101,,GenWind,,GenWind,
date,time,status,PA,status,PR,status,RH,status,SR,status,TA,status,DirAvg,status,SpdAvg,
2014-04-01, 00:00:04,VALID,1008.7,VALID,0,VALID,104,VALID,0,VALID,24.0253,VALID,32,VALID,0,
2014-04-01, 00:01:04,VALID,1008.74,VALID,0,VALID,104,VALID,0,VALID,24.0058,VALID,33,VALID,0,
2014-04-01, 00:02:04,VALID,1008.79,VALID,0,VALID,104,VALID,0,VALID,24.0058,VALID,32,VALID,0,
2014-04-01, 00:03:04,VALID,1008.83,VALID,0,VALID,104,VALID,0,VALID,23.9863,VALID,32,VALID,0,
2014-04-01, 00:04:04,VALID,1008.87,VALID,0,VALID,104,VALID,0,VALID,23.9668,VALID,32,VALID,0,
2014-04-01, 00:05:04,VALID,1008.89,VALID,0,VALID,104,VALID,0,VALID,23.9668,VALID,33,VALID,0,
2014-04-01, 00:06:04,VALID,1008.89,VALID,0,VALID,104,VALID,0,VALID,23.9473,VALID,33,VALID,0,
2014-04-01, 00:07:04,VALID,1008.93,VALID,0,VALID,104,VALID,0,VALID,23.9278,VALID,33,VALID,0,
2014-04-01, 00:08:04,VALID,1008.97,VALID,0,VALID,104,VALID,0,VALID,23.9084,VALID,33,VALID,0,
2014-04-01, 00:09:04,VALID,1009.01,VALID,0,VALID,104,VALID,0,VALID,23.8694,VALID,33,VALID,0,
2014-04-01, 00:10:04,VALID,1009.04,VALID,0,VALID,104,VALID,0,VALID,23.8499,VALID,33,VALID,0,
2014-04-01, 00:11:04,VALID,1009.07,VALID,0,VALID,104,VALID,0,VALID,23.8109,VALID,33,VALID,0,
2014-04-01, 00:12:04,VALID,1009.09,VALID,0,VALID,104,VALID,0,VALID,23.7896,VALID,33,VALID,0,
2014-04-01, 00:13:04,VALID,1009.11,VALID,0,VALID,104,VALID,0,VALID,23.8109,VALID,33,VALID,0,
2014-04-01, 00:14:04,VALID,1009.1,VALID,0,VALID,104,VALID,0,VALID,23.8109,VALID,33,VALID,0,
2014-04-01, 00:15:04,VALID,1009.12,VALID,0,VALID,104,VALID,0,VALID,23.8109,VALID,33,VALID,0,
2014-04-01, 00:16:04,VALID,1009.09,VALID,0,VALID,104,VALID,0,VALID,23.8109,VALID,33,VALID,0,
2014-04-01, 00:17:04,VALID,1009.09,VALID,0,VALID,104,VALID,0,VALID,23.8304,VALID,33,VALID,0,
2014-04-01, 00:18:04,VALID,1009.1,VALID,0,VALID,104,VALID,0,VALID,23.8304,VALID,33,VALID,0,
2014-04-01, 00:19:04,VALID,1009.11,VALID,0,VALID,104,VALID,0,VALID,23.8109,VALID,32,VALID,0,
2014-04-01, 00:20:04,VALID,1009.12,VALID,0,VALID,104,VALID,0,VALID,23.8109,VALID,32,VALID,0,
2014-04-01, 00:21:04,VALID,1009.15,VALID,0,VALID,104,VALID,0,VALID,23.7914,VALID,32,VALID,0,
2014-04-01, 00:22:04,VALID,1009.18,VALID,0,VALID,104,VALID,0,VALID,23.772,VALID,33,VALID,0,
2014-04-01, 00:23:04,VALID,1009.21,VALID,0,VALID,104,VALID,0,VALID,23.733,VALID,33,VALID,0,
2014-04-01, 00:24:04,VALID,1009.22,VALID,0,VALID,104,VALID,0,VALID,23.7135,VALID,33,VALID,0,
2014-04-01, 00:25:04,VALID,1009.22,VALID,0,VALID,104,VALID,0,VALID,23.6727,VALID,33,VALID,0,
2014-04-01, 00:26:04,VALID,1009.23,VALID,0,VALID,104,VALID,0,VALID,23.6745,VALID,33,VALID,0,
2014-04-01, 00:27:04,VALID,1009.25,VALID,0,VALID,104,VALID,0,VALID,23.6745,VALID,33,VALID,0,
2014-04-01, 00:28:04,VALID,1009.28,VALID,0,VALID,104,VALID,0,VALID,23.6745,VALID,33,VALID,0,
2014-04-01, 00:29:04,VALID,1009.29,VALID,0,VALID,104,VALID,0,VALID,23.6745,VALID,33,VALID,0,
2014-04-01, 00:30:04,VALID,1009.3,VALID,0,VALID,104,VALID,0,VALID,23.6745,VALID,33,VALID,0,
2014-04-01, 00:31:04,VALID,1009.32,VALID,0,VALID,104,VALID,0,VALID,23.6532,VALID,33,VALID,0,
2014-04-01, 00:32:04,VALID,1009.35,VALID,0,VALID,104,VALID,0,VALID,23.6745,VALID,33,VALID,0,
2014-04-01, 00:33:04,VALID,1009.4,VALID,0,VALID,104,VALID,0,VALID,23.6745,VALID,33,VALID,0,
2014-04-01, 00:34:04,VALID,1009.42,VALID,0,VALID,104,VALID,0,VALID,23.6745,VALID,33,VALID,0,
2014-04-01, 00:35:04,VALID,1009.46,VALID,0,VALID,104,VALID,0,VALID,23.6745,VALID,33,VALID,0,
2014-04-01, 00:36:04,VALID,1009.49,VALID,0,VALID,104,VALID,0,VALID,23.6532,VALID,33,VALID,0,
2014-04-01, 00:37:04,VALID,1009.53,VALID,0,VALID,104,VALID,0,VALID,23.6922,VALID,33,VALID,0,
2014-04-01, 00:38:04,VALID,1009.56,VALID,0,VALID,104,VALID,0,VALID,23.7135,VALID,33,VALID,0,
2014-04-01, 00:39:04,VALID,1009.6,VALID,0,VALID,104,VALID,0,VALID,23.7135,VALID,33,VALID,0,
2014-04-01, 00:40:04,VALID,1009.58,VALID,0,VALID,104,VALID,0,VALID,23.733,VALID,33,VALID,0,
2014-04-01, 00:41:04,VALID,1009.63,VALID,0,VALID,104,VALID,0,VALID,23.733,VALID,33,VALID,0,
2014-04-01, 00:42:04,VALID,1009.63,VALID,0,VALID,104,VALID,0,VALID,23.733,VALID,33,VALID,0,
2014-04-01, 00:43:04,VALID,1009.65,VALID,0,VALID,104,VALID,0,VALID,23.733,VALID,33,VALID,0,
2014-04-01, 00:44:04,VALID,1009.64,VALID,0,VALID,104,VALID,0,VALID,23.733,VALID,33,VALID,0,
2014-04-01, 00:45:04,VALID,1009.65,VALID,0,VALID,104,VALID,0,VALID,23.733,VALID,33,VALID,0,
2014-04-01, 00:46:04,VALID,1009.68,VALID,0,VALID,104,VALID,0,VALID,23.733,VALID,33,VALID,0,
2014-04-01, 00:47:04,VALID,1009.66,VALID,0,VALID,104,VALID,0,VALID,23.7135,VALID,33,VALID,0,
2014-04-01, 00:48:04,VALID,1009.68,VALID,0,VALID,104,VALID,0,VALID,23.7135,VALID,33,VALID,0,
2014-04-01, 00:49:04,VALID,1009.69,VALID,0,VALID,104,VALID,0,VALID,23.694,VALID,33,VALID,0,
2014-04-01, 00:50:04,VALID,1009.68,VALID,0,VALID,104,VALID,0,VALID,23.694,VALID,33,VALID,0,
2014-04-01, 00:51:04,VALID,1009.68,VALID,0,VALID,104,VALID,0,VALID,23.694,VALID,32,VALID,0,
2014-04-01, 00:52:04,VALID,1009.68,VALID,0,VALID,104,VALID,0,VALID,23.655,VALID,32,VALID,0,
2014-04-01, 00:53:04,VALID,1009.7,VALID,0,VALID,104,VALID,0,VALID,23.655,VALID,33,VALID,0,
2014-04-01, 00:54:04,VALID,1009.7,VALID,0,VALID,104,VALID,0,VALID,23.6356,VALID,33,VALID,0,
2014-04-01, 00:55:04,VALID,1009.74,VALID,0,VALID,104,VALID,0,VALID,23.6356,VALID,33,VALID,0,
2014-04-01, 00:56:04,VALID,1009.74,VALID,0,VALID,104,VALID,0,VALID,23.6161,VALID,33,VALID,0,
2014-04-01, 00:57:04,VALID,1009.76,VALID,0,VALID,104,VALID,0,VALID,23.6373,VALID,33,VALID,0,
2014-04-01, 00:58:04,VALID,1009.76,VALID,0,VALID,104,VALID,0,VALID,23.6356,VALID,33,VALID,0,
2014-04-01, 00:59:04,VALID,1009.82,VALID,0,VALID,104,VALID,0,VALID,23.6356,VALID,33,VALID,0,
2014-04-01, 01:00:04,VALID,1009.8,VALID,0,VALID,104,VALID,0,VALID,23.655,VALID,33,VALID,0,
2014-04-01, 01:01:04,VALID,1009.75,VALID,0,VALID,104,VALID,0,VALID,23.655,VALID,33,VALID,0,
2014-04-01, 01:02:04,VALID,1009.74,VALID,0,VALID,104,VALID,0,VALID,23.7348,VALID,33,VALID,0,
2014-04-01, 01:03:04,VALID,1009.73,VALID,0,VALID,104,VALID,0,VALID,23.733,VALID,33,VALID,0,
2014-04-01, 01:04:04,VALID,1009.69,VALID,0,VALID,104,VALID,0,VALID,23.7525,VALID,33,VALID,0,
2014-04-01, 01:05:04,VALID,1009.7,VALID,0,VALID,104,VALID,0,VALID,23.772,VALID,33,VALID,0,
2014-04-01, 01:06:04,VALID,1009.68,VALID,0,VALID,104,VALID,0,VALID,23.772,VALID,33,VALID,0,
2014-04-01, 01:07:04,VALID,1009.65,VALID,0,VALID,104,VALID,0,VALID,23.772,VALID,33,VALID,0,
2014-04-01, 01:08:04,VALID,1009.63,VALID,0,VALID,104,VALID,0,VALID,23.7525,VALID,33,VALID,0,
2014-04-01, 01:09:04,VALID,1009.66,VALID,0,VALID,104,VALID,0,VALID,23.7525,VALID,33,VALID,0,
2014-04-01, 01:10:04,VALID,1009.65,VALID,0,VALID,104,VALID,0,VALID,23.772,VALID,33,VALID,0,
2014-04-01, 01:11:04,VALID,1009.64,VALID,0,VALID,104,VALID,0,VALID,23.7932,VALID,33,VALID,0,
2014-04-01, 01:12:04,VALID,1009.67,VALID,0,VALID,104,VALID,0,VALID,23.7525,VALID,32,VALID,0,
2014-04-01, 01:13:04,VALID,1009.65,VALID,0,VALID,104,VALID,0,VALID,23.772,VALID,33,VALID,0,
2014-04-01, 01:14:04,VALID,1009.64,VALID,0,VALID,104,VALID,0,VALID,23.7932,VALID,33,VALID,0,
2014-04-01, 01:15:04,VALID,1009.66,VALID,0,VALID,104,VALID,0,VALID,23.733,VALID,33,VALID,0,
2014-04-01, 01:16:04,VALID,1009.68,VALID,0,VALID,104,VALID,0,VALID,23.733,VALID,33,VALID,0,
2014-04-01, 01:17:04,VALID,1009.68,VALID,0,VALID,104,VALID,0,VALID,23.733,VALID,33,VALID,0,
2014-04-01, 01:18:04,VALID,1009.68,VALID,0,VALID,104,VALID,0,VALID,23.733,VALID,33,VALID,0,
2014-04-01, 01:19:04,VALID,1009.68,VALID,0,VALID,104,VALID,0,VALID,23.733,VALID,33,VALID,0,
2014-04-01, 01:20:04,VALID,1009.65,VALID,0,VALID,104,VALID,0,VALID,23.733,VALID,33,VALID,0,
2014-04-01, 01:21:04,VALID,1009.62,VALID,0,VALID,104,VALID,0,VALID,23.7525,VALID,33,VALID,0,
2014-04-01, 01:22:04,VALID,1009.6,VALID,0,VALID,104,VALID,0,VALID,23.733,VALID,33,VALID,0,
2014-04-01, 01:23:04,VALID,1009.59,VALID,0,VALID,104,VALID,0,VALID,23.733,VALID,33,VALID,0,
2014-04-01, 01:24:04,VALID,1009.58,VALID,0,VALID,104,VALID,0,VALID,23.7525,VALID,33,VALID,0,
2014-04-01, 01:25:04,VALID,1009.56,VALID,0,VALID,104,VALID,0,VALID,23.733,VALID,33,VALID,0,
2014-04-01, 01:26:04,VALID,1009.55,VALID,0,VALID,104,VALID,0,VALID,23.7135,VALID,33,VALID,0,
2014-04-01, 01:27:04,VALID,1009.56,VALID,0,VALID,104,VALID,0,VALID,23.7135,VALID,33,VALID,0,
2014-04-01, 01:28:04,VALID,1009.52,VALID,0,VALID,104,VALID,0,VALID,23.7135,VALID,33,VALID,0,
2014-04-01, 01:29:04,VALID,1009.59,VALID,0,VALID,104,VALID,0,VALID,23.7153,VALID,33,VALID,0,
2014-04-01, 01:30:04,VALID,1009.55,VALID,0,VALID,104,VALID,0,VALID,23.7153,VALID,33,VALID,0,
2014-04-01, 01:31:04,VALID,1009.58,VALID,0,VALID,104,VALID,0,VALID,23.7135,VALID,33,VALID,0,
2014-04-01, 01:32:04,VALID,1009.58,VALID,0,VALID,104,VALID,0,VALID,23.7135,VALID,33,VALID,0,
2014-04-01, 01:33:04,VALID,1009.58,VALID,0,VALID,104,VALID,0,VALID,23.733,VALID,32,VALID,0,
2014-04-01, 01:34:04,VALID,1009.59,VALID,0,VALID,104,VALID,0,VALID,23.7543,VALID,32,VALID,0,
2014-04-01, 01:35:04,VALID,1009.58,VALID,0,VALID,104,VALID,0,VALID,23.7525,VALID,32,VALID,0,
2014-04-01, 01:36:04,VALID,1009.58,VALID,0,VALID,104,VALID,0,VALID,23.7525,VALID,33,VALID,0,
2014-04-01, 01:37:04,VALID,1009.64,VALID,0,VALID,104,VALID,0,VALID,23.7525,VALID,33,VALID,0,
2014-04-01, 01:38:04,VALID,1009.64,VALID,0,VALID,104,VALID,0,VALID,23.7525,VALID,33,VALID,0,
2014-04-01, 01:39:04,VALID,1009.64,VALID,0,VALID,104,VALID,0,VALID,23.7914,VALID,33,VALID,0,
2014-04-01, 01:40:04,VALID,1009.66,VALID,0,VALID,104,VALID,0,VALID,23.7914,VALID,33,VALID,0,
2014-04-01, 01:41:04,VALID,1009.71,VALID,0,VALID,104,VALID,0,VALID,23.8109,VALID,33,VALID,0,
2014-04-01, 01:42:04,VALID,1009.69,VALID,0,VALID,104,VALID,0,VALID,23.8304,VALID,33,VALID,0,
2014-04-01, 01:43:04,VALID,1009.71,VALID,0,VALID,104,VALID,0,VALID,23.8304,VALID,33,VALID,0,
2014-04-01, 01:44:04,VALID,1009.72,VALID,0,VALID,104,VALID,0,VALID,23.8304,VALID,33,VALID,0,
2014-04-01, 01:45:04,VALID,1009.72,VALID,0,VALID,104,VALID,0,VALID,23.8304,VALID,33,VALID,0,
2014-04-01, 01:46:04,VALID,1009.74,VALID,0,VALID,104,VALID,0,VALID,23.8304,VALID,33,VALID,0,
2014-04-01, 01:47:04,VALID,1009.73,VALID,0,VALID,104,VALID,0,VALID,23.8499,VALID,33,VALID,0,
2014-04-01, 01:48:04,VALID,1009.76,VALID,0,VALID,104,VALID,0.112112,VALID,23.8694,VALID,33,VALID,0,
2014-04-01, 01:49:04,VALID,1009.78,VALID,0,VALID,104,VALID,0,VALID,23.8694,VALID,33,VALID,0,
2014-04-01, 01:50:04,VALID,1009.76,VALID,0,VALID,104,VALID,0,VALID,23.8694,VALID,33,VALID,0,
2014-04-01, 01:51:04,VALID,1009.76,VALID,0,VALID,104,VALID,0,VALID,23.8499,VALID,33,VALID,0,
2014-04-01, 01:52:04,VALID,1009.72,VALID,0,VALID,104,VALID,0,VALID,23.8499,VALID,33,VALID,0,
2014-04-01, 01:53:04,VALID,1009.69,VALID,0,VALID,104,VALID,0,VALID,23.8286,VALID,33,VALID,0,
2014-04-01, 01:54:04,VALID,1009.66,VALID,0,VALID,104,VALID,0,VALID,23.8499,VALID,33,VALID,0,
2014-04-01, 01:55:04,VALID,1009.68,VALID,0,VALID,104,VALID,0,VALID,23.8499,VALID,33,VALID,0,
2014-04-01, 01:56:04,VALID,1009.66,VALID,0,VALID,104,VALID,0,VALID,23.8499,VALID,33,VALID,0,
2014-04-01, 01:57:04,VALID,1009.69,VALID,0,VALID,104,VALID,0,VALID,23.8286,VALID,33,VALID,0,
2014-04-01, 01:58:04,VALID,1009.71,VALID,0,VALID,104,VALID,0,VALID,23.8499,VALID,33,VALID,0,
2014-04-01, 01:59:04,VALID,1009.68,VALID,0,VALID,104,VALID,0,VALID,23.8499,VALID,33,VALID,0,
2014-04-01, 02:00:04,VALID,1009.69,VALID,0,VALID,104,VALID,0,VALID,23.8499,VALID,33,VALID,0,
2014-04-01, 02:01:04,VALID,1009.7,VALID,0,VALID,104,VALID,0,VALID,23.8694,VALID,33,VALID,0,
2014-04-01, 02:02:04,VALID,1009.65,VALID,0,VALID,104,VALID,0,VALID,23.9084,VALID,33,VALID,0,
2014-04-01, 02:03:04,VALID,1009.63,VALID,0,VALID,104,VALID,0,VALID,23.9084,VALID,33,VALID,0,
2014-04-01, 02:04:04,VALID,1009.59,VALID,0,VALID,104,VALID,0,VALID,23.9084,VALID,33,VALID,0,
2014-04-01, 02:05:04,VALID,1009.52,VALID,0,VALID,104,VALID,0,VALID,23.8871,VALID,33,VALID,0,
2014-04-01, 02:06:04,VALID,1009.49,VALID,0,VALID,104,VALID,0,VALID,23.9084,VALID,33,VALID,0,
2014-04-01, 02:07:04,VALID,1009.46,VALID,0,VALID,104,VALID,0,VALID,23.9278,VALID,33,VALID,0,
2014-04-01, 02:08:04,VALID,1009.41,VALID,0,VALID,104,VALID,0,VALID,23.9278,VALID,33,VALID,0,
2014-04-01, 02:09:04,VALID,1009.38,VALID,0,VALID,104,VALID,0,VALID,23.9278,VALID,33,VALID,0,
2014-04-01, 02:10:04,VALID,1009.39,VALID,0,VALID,104,VALID,0,VALID,23.9278,VALID,33,VALID,0,
2014-04-01, 02:11:04,VALID,1009.34,VALID,0,VALID,104,VALID,0,VALID,23.9473,VALID,33,VALID,0,
2014-04-01, 02:12:04,VALID,1009.33,VALID,0,VALID,104,VALID,0,VALID,23.9473,VALID,33,VALID,0,
2014-04-01, 02:13:04,VALID,1009.28,VALID,0,VALID,104,VALID,0,VALID,23.9473,VALID,33,VALID,0,
2014-04-01, 02:14:04,VALID,1009.26,VALID,0,VALID,104,VALID,0,VALID,23.9278,VALID,33,VALID,0,
2014-04-01, 02:15:04,VALID,1009.22,VALID,0,VALID,104,VALID,0,VALID,23.9473,VALID,33,VALID,0,
2014-04-01, 02:16:04,VALID,1009.22,VALID,0,VALID,104,VALID,0,VALID,23.9668,VALID,33,VALID,0,
2014-04-01, 02:17:04,VALID,1009.2,VALID,0,VALID,104,VALID,0,VALID,23.9668,VALID,33,VALID,0,
2014-04-01, 02:18:04,VALID,1009.16,VALID,0,VALID,104,VALID,0,VALID,23.9455,VALID,33,VALID,0,
2014-04-01, 02:19:04,VALID,1009.18,VALID,0,VALID,104,VALID,0,VALID,23.9455,VALID,33,VALID,0,
2014-04-01, 02:20:04,VALID,1009.15,VALID,0,VALID,104,VALID,0,VALID,23.9473,VALID,32,VALID,0,
2014-04-01, 02:21:04,VALID,1009.15,VALID,0,VALID,104,VALID,0,VALID,23.9278,VALID,33,VALID,0,
2014-04-01, 02:22:04,VALID,1009.14,VALID,0,VALID,104,VALID,0,VALID,23.9473,VALID,33,VALID,0,
2014-04-01, 02:23:04,VALID,1009.13,VALID,0,VALID,104,VALID,0,VALID,23.9473,VALID,33,VALID,0,
2014-04-01, 02:24:04,VALID,1009.11,VALID,0,VALID,104,VALID,0,VALID,23.9473,VALID,33,VALID,0,
2014-04-01, 02:25:04,VALID,1009.1,VALID,0,VALID,104,VALID,0,VALID,23.9278,VALID,33,VALID,0,
2014-04-01, 02:26:04,VALID,1009.09,VALID,0,VALID,104,VALID,0,VALID,23.9491,VALID,33,VALID,0,
2014-04-01, 02:27:04,VALID,1009.07,VALID,0,VALID,104,VALID,0.112112,VALID,23.926,VALID,33,VALID,0,
2014-04-01, 02:28:04,VALID,1009.04,VALID,0,VALID,104,VALID,0.112112,VALID,23.9455,VALID,33,VALID,0,
2014-04-01, 02:29:04,VALID,1009.01,VALID,0,VALID,104,VALID,0.112112,VALID,23.9455,VALID,33,VALID,0,
2014-04-01, 02:30:04,VALID,1009.01,VALID,0,VALID,104,VALID,0.112112,VALID,23.9455,VALID,33,VALID,0,
2014-04-01, 02:31:04,VALID,1008.96,VALID,0,VALID,104,VALID,0.112112,VALID,23.965,VALID,33,VALID,0,
2014-04-01, 02:32:04,VALID,1008.97,VALID,0,VALID,104,VALID,0.112112,VALID,23.965,VALID,33,VALID,0,
2014-04-01, 02:33:04,VALID,1008.96,VALID,0,VALID,104,VALID,0.112112,VALID,23.9455,VALID,33,VALID,0,
2014-04-01, 02:34:04,VALID,1008.94,VALID,0,VALID,104,VALID,0.112112,VALID,23.965,VALID,33,VALID,0,
2014-04-01, 02:35:04,VALID,1008.93,VALID,0,VALID,104,VALID,0.112112,VALID,23.965,VALID,33,VALID,0,
2014-04-01, 02:36:04,VALID,1008.92,VALID,0,VALID,104,VALID,0.112112,VALID,23.9845,VALID,33,VALID,0,
2014-04-01, 02:37:04,VALID,1008.9,VALID,0,VALID,104,VALID,0.112112,VALID,23.9845,VALID,33,VALID,0,
2014-04-01, 02:38:04,VALID,1008.9,VALID,0,VALID,104,VALID,0.112112,VALID,23.9845,VALID,33,VALID,0,
2014-04-01, 02:39:04,VALID,1008.87,VALID,0,VALID,104,VALID,0.112112,VALID,23.9845,VALID,33,VALID,0,
2014-04-01, 02:40:04,VALID,1008.9,VALID,0,VALID,104,VALID,0.112112,VALID,23.9632,VALID,33,VALID,0,
2014-04-01, 02:41:04,VALID,1008.9,VALID,0,VALID,104,VALID,0.224224,VALID,24.004,VALID,33,VALID,0,
2014-04-01, 02:42:04,VALID,1008.9,VALID,0,VALID,104,VALID,0,VALID,24.0058,VALID,33,VALID,0,
2014-04-01, 02:43:04,VALID,1008.89,VALID,0,VALID,104,VALID,0,VALID,23.9863,VALID,33,VALID,0,
2014-04-01, 02:44:04,VALID,1008.84,VALID,0,VALID,104,VALID,0,VALID,23.9863,VALID,33,VALID,0,
2014-04-01, 02:45:04,VALID,1008.84,VALID,0,VALID,104,VALID,0,VALID,24.0058,VALID,33,VALID,0,
2014-04-01, 02:46:04,VALID,1008.79,VALID,0,VALID,104,VALID,0,VALID,24.0058,VALID,33,VALID,0,
2014-04-01, 02:47:04,VALID,1008.76,VALID,0,VALID,104,VALID,0,VALID,24.0058,VALID,33,VALID,0,
2014-04-01, 02:48:04,VALID,1008.73,VALID,0,VALID,104,VALID,0,VALID,24.0058,VALID,33,VALID,0,
2014-04-01, 02:49:04,VALID,1008.74,VALID,0,VALID,104,VALID,0,VALID,24.0253,VALID,33,VALID,0,
2014-04-01, 02:50:04,VALID,1008.7,VALID,0,VALID,104,VALID,0,VALID,24.0076,VALID,33,VALID,0,
2014-04-01, 02:51:04,VALID,1008.7,VALID,0,VALID,104,VALID,0,VALID,23.9863,VALID,33,VALID,0,
2014-04-01, 02:52:04,VALID,1008.68,VALID,0,VALID,104,VALID,0,VALID,23.9863,VALID,32,VALID,0,
2014-04-01, 02:53:04,VALID,1008.65,VALID,0,VALID,104,VALID,0,VALID,23.9863,VALID,32,VALID,0,
2014-04-01, 02:54:04,VALID,1008.62,VALID,0,VALID,104,VALID,0,VALID,23.9668,VALID,33,VALID,0,
2014-04-01, 02:55:04,VALID,1008.59,VALID,0,VALID,104,VALID,0,VALID,23.9881,VALID,33,VALID,0,
2014-04-01, 02:56:04,VALID,1008.56,VALID,0,VALID,104,VALID,0,VALID,23.9668,VALID,33,VALID,0,
2014-04-01, 02:57:04,VALID,1008.53,VALID,0,VALID,104,VALID,0,VALID,23.9686,VALID,33,VALID,0,
2014-04-01, 02:58:04,VALID,1008.51,VALID,0,VALID,104,VALID,0,VALID,23.9881,VALID,33,VALID,0,
2014-04-01, 02:59:04,VALID,1008.52,VALID,0,VALID,104,VALID,0,VALID,23.9668,VALID,33,VALID,0,
2014-04-01, 03:00:04,VALID,1008.5,VALID,0,VALID,104,VALID,0,VALID,23.9881,VALID,33,VALID,0,
2014-04-01, 03:01:04,VALID,1008.51,VALID,0,VALID,104,VALID,0,VALID,23.9473,VALID,33,VALID,0,
2014-04-01, 03:02:04,VALID,1008.48,VALID,0,VALID,104,VALID,0,VALID,23.9491,VALID,33,VALID,0,
2014-04-01, 03:03:04,VALID,1008.53,VALID,0,VALID,104,VALID,0,VALID,23.9084,VALID,33,VALID,0,
2014-04-01, 03:04:04,VALID,1008.53,VALID,0,VALID,104,VALID,0,VALID,23.9084,VALID,33,VALID,0,
2014-04-01, 03:05:04,VALID,1008.52,VALID,0,VALID,104,VALID,0,VALID,23.8889,VALID,33,VALID,0,
2014-04-01, 03:06:04,VALID,1008.54,VALID,0,VALID,104,VALID,0,VALID,23.9102,VALID,33,VALID,0,
2014-04-01, 03:07:04,VALID,1008.55,VALID,0,VALID,104,VALID,0,VALID,23.8889,VALID,33,VALID,0,
2014-04-01, 03:08:04,VALID,1008.54,VALID,0,VALID,104,VALID,0,VALID,23.8889,VALID,33,VALID,0,
2014-04-01, 03:09:04,VALID,1008.51,VALID,0,VALID,104,VALID,0,VALID,23.8889,VALID,33,VALID,0,
2014-04-01, 03:10:04,VALID,1008.49,VALID,0,VALID,104,VALID,0,VALID,23.8889,VALID,33,VALID,0,
2014-04-01, 03:11:04,VALID,1008.48,VALID,0,VALID,104,VALID,0,VALID,23.9297,VALID,33,VALID,0,
2014-04-01, 03:12:04,VALID,1008.5,VALID,0,VALID,104,VALID,0,VALID,23.9084,VALID,33,VALID,0,
2014-04-01, 03:13:04,VALID,1008.48,VALID,0,VALID,104,VALID,0,VALID,23.9084,VALID,33,VALID,0,
2014-04-01, 03:14:04,VALID,1008.5,VALID,0,VALID,104,VALID,0,VALID,23.9297,VALID,33,VALID,0,
2014-04-01, 03:15:04,VALID,1008.52,VALID,0,VALID,104,VALID,0,VALID,23.9102,VALID,33,VALID,0,
2014-04-01, 03:16:04,VALID,1008.52,VALID,0,VALID,104,VALID,0,VALID,23.8889,VALID,33,VALID,0,
2014-04-01, 03:17:04,VALID,1008.55,VALID,0,VALID,104,VALID,0,VALID,23.8889,VALID,33,VALID,0,
2014-04-01, 03:18:04,VALID,1008.55,VALID,0,VALID,104,VALID,0,VALID,23.9084,VALID,33,VALID,0,
2014-04-01, 03:19:04,VALID,1008.52,VALID,0,VALID,104,VALID,0,VALID,23.9084,VALID,358,VALID,0,
2014-04-01, 03:20:04,VALID,1008.51,VALID,0,VALID,104,VALID,0,VALID,23.9084,VALID,358,VALID,0,
2014-04-01, 03:21:04,VALID,1008.49,VALID,0,VALID,104,VALID,0,VALID,23.9278,VALID,358,VALID,0,
2014-04-01, 03:22:04,VALID,1008.49,VALID,0,VALID,104,VALID,0,VALID,23.9065,VALID,352,VALID,0,
2014-04-01, 03:23:04,VALID,1008.47,VALID,0,VALID,104,VALID,0,VALID,23.9473,VALID,352,VALID,0,
2014-04-01, 03:24:04,VALID,1008.48,VALID,0,VALID,104,VALID,0,VALID,23.9278,VALID,352,VALID,0,
2014-04-01, 03:25:04,VALID,1008.49,VALID,0,VALID,104,VALID,0,VALID,23.9473,VALID,352,VALID,0,
2014-04-01, 03:26:04,VALID,1008.46,VALID,0,VALID,104,VALID,0,VALID,23.9473,VALID,352,VALID,0,
2014-04-01, 03:27:04,VALID,1008.46,VALID,0,VALID,104,VALID,0,VALID,23.926,VALID,352,VALID,0,
2014-04-01, 03:28:04,VALID,1008.44,VALID,0,VALID,104,VALID,0,VALID,23.9278,VALID,338,VALID,0,
2014-04-01, 03:29:04,VALID,1008.46,VALID,0,VALID,104,VALID,0,VALID,23.9278,VALID,328,VALID,0,
2014-04-01, 03:30:04,VALID,1008.44,VALID,0,VALID,104,VALID,0,VALID,23.9278,VALID,328,VALID,0,
2014-04-01, 03:31:04,VALID,1008.43,VALID,0,VALID,104,VALID,0,VALID,23.9278,VALID,344,VALID,0,
2014-04-01, 03:32:04,VALID,1008.42,VALID,0,VALID,104,VALID,0,VALID,23.9278,VALID,344,VALID,0,
2014-04-01, 03:33:04,VALID,1008.44,VALID,0,VALID,104,VALID,0,VALID,23.9278,VALID,344,VALID,0,
2014-04-01, 03:34:04,VALID,1008.41,VALID,0,VALID,104,VALID,0,VALID,23.9084,VALID,344,VALID,0,
2014-04-01, 03:35:04,VALID,1008.41,VALID,0,VALID,104,VALID,0,VALID,23.9278,VALID,344,VALID,0,
2014-04-01, 03:36:04,VALID,1008.41,VALID,0,VALID,104,VALID,0,VALID,23.9084,VALID,344,VALID,0,
2014-04-01, 03:37:04,VALID,1008.39,VALID,0,VALID,104,VALID,0,VALID,23.9084,VALID,344,VALID,0,
2014-04-01, 03:38:04,VALID,1008.38,VALID,0,VALID,104,VALID,0,VALID,23.9084,VALID,344,VALID,0,
2014-04-01, 03:39:04,VALID,1008.36,VALID,0,VALID,104,VALID,0,VALID,23.8889,VALID,344,VALID,0,
2014-04-01, 03:40:04,VALID,1008.33,VALID,0,VALID,104,VALID,0,VALID,23.9084,VALID,344,VALID,0,
2014-04-01, 03:41:04,VALID,1008.35,VALID,0,VALID,104,VALID,0,VALID,23.8889,VALID,344,VALID,0,
2014-04-01, 03:42:04,VALID,1008.33,VALID,0,VALID,104,VALID,0,VALID,23.8889,VALID,344,VALID,0,
2014-04-01, 03:43:04,VALID,1008.37,VALID,0,VALID,104,VALID,0,VALID,23.8694,VALID,344,VALID,0,
2014-04-01, 03:44:04,VALID,1008.37,VALID,0,VALID,104,VALID,0,VALID,23.8694,VALID,344,VALID,0,
2014-04-01, 03:45:04,VALID,1008.35,VALID,0,VALID,104,VALID,0,VALID,23.8694,VALID,344,VALID,0,
2014-04-01, 03:46:04,VALID,1008.36,VALID,0,VALID,104,VALID,0,VALID,23.8499,VALID,344,VALID,0,
2014-04-01, 03:47:04,VALID,1008.36,VALID,0,VALID,104,VALID,0,VALID,23.8694,VALID,344,VALID,0,
2014-04-01, 03:48:04,VALID,1008.35,VALID,0,VALID,104,VALID,0,VALID,23.8499,VALID,344,VALID,0,
2014-04-01, 03:49:04,VALID,1008.3,VALID,0,VALID,104,VALID,0,VALID,23.8091,VALID,344,VALID,0,
2014-04-01, 03:50:04,VALID,1008.31,VALID,0,VALID,104,VALID,0,VALID,23.8499,VALID,344,VALID,0,
2014-04-01, 03:51:04,VALID,1008.28,VALID,0,VALID,104,VALID,0,VALID,23.8499,VALID,344,VALID,0,
2014-04-01, 03:52:04,VALID,1008.28,VALID,0,VALID,104,VALID,0,VALID,23.8499,VALID,344,VALID,0,
2014-04-01, 03:53:04,VALID,1008.27,VALID,0,VALID,104,VALID,0,VALID,23.8499,VALID,344,VALID,0,
2014-04-01, 03:54:04,VALID,1008.24,VALID,0,VALID,104,VALID,0,VALID,23.8304,VALID,344,VALID,0,
2014-04-01, 03:55:04,VALID,1008.26,VALID,0,VALID,104,VALID,0,VALID,23.8304,VALID,344,VALID,0,
2014-04-01, 03:56:04,VALID,1008.24,VALID,0,VALID,104,VALID,0,VALID,23.8304,VALID,344,VALID,0,
2014-04-01, 03:57:04,VALID,1008.22,VALID,0,VALID,104,VALID,0,VALID,23.8304,VALID,344,VALID,0,
2014-04-01, 03:58:04,VALID,1008.24,VALID,0,VALID,104,VALID,0,VALID,23.8304,VALID,344,VALID,0,
2014-04-01, 03:59:04,VALID,1008.24,VALID,0,VALID,104,VALID,0,VALID,23.8304,VALID,344,VALID,0,
2014-04-01, 04:00:04,VALID,1008.3,VALID,0,VALID,104,VALID,0,VALID,23.8304,VALID,344,VALID,0,
2014-04-01, 04:01:04,VALID,1008.3,VALID,0,VALID,104,VALID,0,VALID,23.8109,VALID,344,VALID,0,
2014-04-01, 04:02:04,VALID,1008.3,VALID,0,VALID,104,VALID,0,VALID,23.8304,VALID,344,VALID,0,
2014-04-01, 04:03:04,VALID,1008.32,VALID,0,VALID,104,VALID,0,VALID,23.8109,VALID,344,VALID,0,
2014-04-01, 04:04:04,VALID,1008.29,VALID,0,VALID,104,VALID,0,VALID,23.7914,VALID,344,VALID,0,
2014-04-01, 04:05:04,VALID,1008.27,VALID,0,VALID,104,VALID,0,VALID,23.7914,VALID,344,VALID,0,
2014-04-01, 04:06:04,VALID,1008.26,VALID,0,VALID,104,VALID,0,VALID,23.7914,VALID,344,VALID,0,
2014-04-01, 04:07:04,VALID,1008.25,VALID,0,VALID,104,VALID,0,VALID,23.7932,VALID,344,VALID,0,
2014-04-01, 04:08:04,VALID,1008.22,VALID,0,VALID,104,VALID,0,VALID,23.7914,VALID,344,VALID,0,
2014-04-01, 04:09:04,VALID,1008.2,VALID,0,VALID,104,VALID,0,VALID,23.7914,VALID,344,VALID,0,
2014-04-01, 04:10:04,VALID,1008.21,VALID,0,VALID,104,VALID,0,VALID,23.7914,VALID,344,VALID,0,
2014-04-01, 04:11:04,VALID,1008.19,VALID,0,VALID,104,VALID,0,VALID,23.7914,VALID,344,VALID,0,